Location: Laguna de la Cañada del Gallo
(40.3974°N, 5.2096°W)
Time: 03:38:38
(UTC+00:00)

SPOT 5 - Pass Details

Date: 18 April 2024
Orbit: 620 x 810 km, 98.1° (Epoch: 25 May)

Event Time Altitude Azimuth Distance (km) Brightness Sun altitude
Exits shadow 20:26:33 24° 112° (ESE) 1,639 4.1 -15.4°
Maximum altitude 20:28:50 33° 69° (ENE) 1,320 3.9 -15.8°
Drops below altitude 10° 20:33:30 10° 6° (N) 2,370 5.9 -16.5°
Sets 20:36:00 0° 357° (N) 3,283 6.8 -16.9°
